User: anonymous   Login
Location: Unspecified
(0.0000°N, 0.0000°E)
Time: 00:39:40
(UTC+00:00)
Language:

RAX-2 - Orbit

View from above orbital plane
View from above orbital plane
View from above satellite
View from above satellite

Ground track
Ground track

The orbit data is extracted from the following two-line orbital elements,

1 37853U 11061D   17050.89490985 +.00001212 +00000-0 +76580-4 0  9996
2 37853 101.7149 218.4680 0177172 074.5841 287.4863 15.00985796288561
Epoch (UTC): 19 February 2017 21:28:40
Eccentricity: 0.0177172
inclination: 101.7149°
perigee height: 441 km
apogee height: 687 km
right ascension of ascending node: 218.4680°
argument of perigee: 74.5841°
revolutions per day: 15.00985796
mean anomaly at epoch: 287.4863°
orbit number at epoch: 28856

The dashed part of the orbit path shows where the satellite is in the earth's shadow,  

DLR